Weather History for West Palm Beach, FL

Change the Weather History Date:

Tuesday, November 8, 2011

  Actual Average Record
Temperature  
Mean Temperature 73 °F 74 °F  
Max Temperature 80 °F 81 °F 90 °F (1958)
Min Temperature 66 °F 67 °F 44 °F (1923)
Degree Days  
Heating Degree Days 0 0  
Month to date heating degree days 0 0  
Since 1 July heating degree days 0 1  
Cooling Degree Days 8 9  
Month to date cooling degree days 72 77  
Year to date cooling degree days 4361 3698  
Growing Degree Days 23 (Base 50)    
Moisture  
Dew Point 63 °F    
Average Humidity 76    
Maximum Humidity 97    
Minimum Humidity 54    
Precipitation  
Precipitation 0.01 in 0.17 in 4.15 in (1982)
Month to date precipitation 0.25 1.38  
Year to date precipitation 45.91 55.58  
Snow  
Snow 0.00 in - - ()
Month to date snowfall 0.0  
Since 1 July snowfall 0.0  
Since 1 September snowfall 0.0  
Snow Depth 0.00 in    
Sea Level Pressure  
Sea Level Pressure 30.01 in    
Wind  
Wind Speed 10 mph (NNE)    
Max Wind Speed 20 mph    
Max Gust Speed 25 mph    
Visibility 10 miles    
Events Rain    
T = Trace of Precipitation, MM = Missing Value Source: NWS Daily Summary

Daily Weather History Graph

Daily Weather History Graph

Search for Another Location

Airport:

Trip Planner

Search our weather history database for the weather conditions in past years. The results will help you decide how hot, cold, wet, or windy it might be!

Date:

Astronomy

Nov. 08, 2011 Rise Set
Actual Time 6:34 AM EST 5:33 PM EST
Civil Twilight 6:10 AM EST 5:57 PM EST
Nautical Twilight 5:42 AM EST 6:25 PM EST
Astronomical Twilight 5:15 AM EST 6:52 PM EST
Moon 4:08 PM EST (11/8) 4:38 AM EST (11/8)
Length of Visible Light 11h 47m
Length of Day
10h 58m
Waxing Gibbous, 96% of the Moon is Illuminated
Nov 8
Waxing Gibbous
Nov 10
Full
Nov 18
Last Quarter
Nov 25
New
Dec 2
First Quarter

Hourly Weather History & Observations

Time (EST) Temp. Heat Index Dew Point Humidity Pressure Visibility Wind Dir Wind Speed Gust Speed Precip Events Conditions
12:53 AM 73.0 °F - 64.0 °F 73% 30.03 in 10.0 mi NE 8.1 mph - N/A   Scattered Clouds
1:53 AM 73.9 °F - 64.0 °F 71% 30.02 in 10.0 mi ENE 8.1 mph - N/A   Mostly Cloudy
2:53 AM 73.9 °F - 64.0 °F 71% 30.00 in 10.0 mi NNE 8.1 mph - N/A   Mostly Cloudy
3:53 AM 73.9 °F - 63.0 °F 68% 30.01 in 10.0 mi NNE 5.8 mph - N/A   Mostly Cloudy
4:53 AM 75.0 °F - 63.0 °F 66% 30.01 in 10.0 mi NNE 11.5 mph - 0.00 in Rain Light Rain
5:53 AM 73.9 °F - 64.0 °F 71% 30.01 in 10.0 mi NE 13.8 mph - 0.00 in   Mostly Cloudy
6:53 AM 73.9 °F - 64.0 °F 71% 30.02 in 10.0 mi NE 8.1 mph - 0.00 in Rain Light Rain
7:53 AM 75.0 °F - 64.9 °F 71% 30.03 in 10.0 mi ENE 8.1 mph - N/A   Mostly Cloudy
8:53 AM 78.1 °F - 61.0 °F 56% 30.04 in 10.0 mi NE 11.5 mph - N/A   Scattered Clouds
9:53 AM 79.0 °F - 62.1 °F 56% 30.04 in 10.0 mi NE 12.7 mph - N/A   Mostly Cloudy
10:53 AM 75.0 °F - 69.1 °F 82% 30.04 in 10.0 mi NE 11.5 mph 19.6 mph 0.00 in   Mostly Cloudy
11:53 AM 78.1 °F - 64.9 °F 64% 30.02 in 10.0 mi NNE 15.0 mph - N/A   Mostly Cloudy
12:53 PM 78.1 °F - 66.0 °F 66% 30.00 in 10.0 mi NNE 12.7 mph - 0.00 in   Mostly Cloudy
1:53 PM 80.1 °F 81.7 °F 64.0 °F 58% 29.99 in 10.0 mi NNE 15.0 mph - N/A   Mostly Cloudy
2:53 PM 78.1 °F - 63.0 °F 60% 29.99 in 10.0 mi NNE 13.8 mph 24.2 mph N/A   Mostly Cloudy
3:53 PM 79.0 °F - 61.0 °F 54% 29.98 in 10.0 mi North 16.1 mph - N/A   Scattered Clouds
4:53 PM 78.1 °F - 60.1 °F 54% 29.98 in 10.0 mi NNE 9.2 mph - N/A   Scattered Clouds
5:53 PM 75.0 °F - 62.1 °F 64% 29.99 in 10.0 mi North 8.1 mph - N/A   Scattered Clouds
6:53 PM 73.9 °F - 62.1 °F 66% 30.00 in 10.0 mi North 6.9 mph - N/A   Mostly Cloudy
7:53 PM 70.0 °F - 62.1 °F 76% 30.01 in 10.0 mi NNW 5.8 mph - N/A   Scattered Clouds
8:53 PM 66.0 °F - 61.0 °F 84% 30.01 in 10.0 mi NNW 5.8 mph - N/A   Partly Cloudy
9:53 PM 68.0 °F - 62.1 °F 81% 30.01 in 10.0 mi NNW 4.6 mph - N/A   Scattered Clouds
10:53 PM 72.0 °F - 64.9 °F 78% 30.00 in 10.0 mi NE 13.8 mph 24.2 mph 0.00 in Rain Light Rain
11:53 PM 73.0 °F - 66.0 °F 79% 29.97 in 10.0 mi NE 5.8 mph - 0.00 in   Mostly Cloudy